Regional Weather Roundup
Issued by NWS

Home | Current Version | Previous Version | Text Only | Print | Product List | Glossary On
Versions: 1 2 3 4 5 6 7 8 9 10 11 12 13 14 15 16 17 18 19 20 21 22 23 24 25 26 27 28 29 30 31 32 33 34 35 36 37 38 39 40 41 42 43 44 45 46 47 48 49 50
000
ASUS43 KMPX 241501
RWRMN
WEATHER ROUNDUP FOR MINNESOTA
NATIONAL WEATHER SERVICE TWIN CITIES/CHANHASSEN MN
900 AM CST WED DEC 24 2014


NOTE: "FAIR" INDICATES FEW OR NO CLOUDS BELOW 12,000 FEET WITH NO
SIGNIFICANT WEATHER AND/OR OBSTRUCTIONS TO VISIBILITY. N/A MEANS
CURRENT SKY AND/OR WEATHER CONDITIONS ARE NOT AVAILABLE.

MNZ060>063-068>070-241600-
   Twin Cities Metro

CITY           SKY/WX    TMP DP  RH WIND       PRES   REMARKS
TWIN CITIES    CLOUDY    35  30  82 N10       29.77S WCI  27
ST PAUL        CLOUDY    35  31  85 NW10      29.77F WCI  27
CRYSTAL        CLOUDY    35  31  85 N7        29.76S WCI  29
BLAINE         CLOUDY    36  34  93 NW9       29.76S
LAKEVILLE      CLOUDY    34  30  86 N8        29.76R WCI  27
EDEN PRAIRIE   CLOUDY    34  30  85 N7        29.77R WCI  28
SOUTH ST PAUL  CLOUDY    36  32  86 N6        29.76S
LAKE ELMO      CLOUDY    34  32  93 N7        29.76R WCI  28
$$
MNZ001>005-007-008-013>017-022>024-027-028-241600-
   Northwest Minnesota

CITY           SKY/WX    TMP DP  RH WIND       PRES   REMARKS
BEMIDJI        SNOW      30  30 100 NW6       29.76F VSB<1/4 WCI  24
HALLOCK        CLOUDY    27  25  93 W6        29.78F WCI  20
ROSEAU         CLOUDY    30  27  86 CALM      29.76F
WARROAD        CLOUDY    30  27  86 CALM      29.76F
THIEF RVR FALL CLOUDY    28  28 100 CALM      29.77F
CROOKSTON      CLOUDY    28  28 100 W6        29.80F WCI  22
FOSSTON        FOG       27  27 100 W5        29.78F VSB 1/2 WCI  21
DETROIT LAKES  FOG       30  30 100 NW6       29.81S VSB 3/4 WCI  24
MOORHEAD       DRIZZLE   28  28 100 NW5       29.83F WCI  23
PARK RAPIDS    CLOUDY    32  30  92 NW6       29.77F WCI  26
MAHNOMEN       CLOUDY    29  28  99 W7        29.81R FOG     WCI  22
$$
MNZ006-009>011-018-025>026-241600-
   North Central Minnesota

CITY           SKY/WX    TMP DP  RH WIND       PRES   REMARKS
BAUDETTE       CLOUDY    31  30  96 CALM      29.75F
FLAG ISLAND    CLOUDY    30  28  93 CALM      29.75F
INTL FALLS     FOG       32  31  96 CALM      29.75F VSB 1/2
WASKISH        FOG       32  32 100 CALM      29.76F VSB 3/4
BIG FORK       FOG       34  30  86 CALM      29.75F VSB 1/2
LONGVILLE      FOG       30  30 100 CALM      29.76F VSB 1/2
GRAND RAPIDS   CLOUDY    32  30  93 NW3       29.74F
CRANE LAKE     CLOUDY    30  30 100 CALM      29.77F FOG
ORR            CLOUDY    30  30 100 CALM      29.72F FOG
COOK           CLOUDY    30  30 100 CALM      29.74F
WALKER         CLOUDY    30  30  98 NW3       29.77F
$$
MNZ012-019>021-037-241600-
   Northeast Minnesota

CITY           SKY/WX    TMP DP  RH WIND       PRES   REMARKS
DULUTH         MOCLDY    32  28  85 N8        29.72F WCI  25
ELY            CLOUDY    30  30 100 CALM      29.73F
HIBBING        CLOUDY    33  30  88 N5        29.74F WCI  29
EVELETH        CLOUDY    32  32 100 N5        29.75F WCI  27
DULUTH HARBOR  CLOUDY    36  32  87 N10       29.76F
TWO HARBORS    CLOUDY    37  30  75 N5        29.72S
SILVER BAY     CLOUDY    36  30  80 NW3       29.71F
GRAND MARAIS     N/A     35  30  82 CALM      29.72F
G MARAIS ARPRT CLOUDY    28  25  86 NW7       29.69F FOG     WCI  21
$$
MNZ029>031-032-039>041-046>048-054>057-064-241600-
   West Central Minnesota

CITY           SKY/WX    TMP DP  RH WIND       PRES   REMARKS
FERGUS FALLS   CLOUDY    28  28 100 NW10      29.85S FOG     WCI  19
WHEATON        CLOUDY    27  27 100 NW9       29.87F WCI  17
MORRIS         CLOUDY    30  28  93 NW9       29.82F WCI  22
ALEXANDRIA     CLOUDY    30  29  96 NW8       29.80S FOG     WCI  22
ELBOW LAKE     CLOUDY    28  28  99 NW10      29.82S WCI  19
WADENA         CLOUDY    28  28 100 NW5       29.78F FOG     WCI  23
GLENWOOD       CLOUDY    30  28  93 W10       29.81S FOG     WCI  21
APPLETON       CLOUDY    30  28  93 NW9       29.84F WCI  22
BENSON         CLOUDY    30  28  93 N14       29.83S WCI  20
ORTONVILLE     CLOUDY    28  27  93 NW9       29.85F WCI  20
MADISON        PTCLDY    34  30  86 NW12      29.85S WCI  25
WILLMAR        CLOUDY    32  30  93 NW10      29.82F FOG     WCI  24
$$
MNZ033>034-036-042>043-049>051-058-059-241600-
   Central Minnesota

CITY           SKY/WX    TMP DP  RH WIND       PRES   REMARKS
ST CLOUD       CLOUDY    35  30  82 NW6       29.77F WCI  30
SAUK CENTRE    CLOUDY    31  31  99 NW9       29.79F FOG     WCI  23
PAYNESVILLE    CLOUDY    30  30 100 W7        29.80S FOG     WCI  23
AITKIN         CLOUDY    36  30  80 CALM      29.75F
PINE RIVER     CLOUDY    30  30 100 CALM      29.81S
BRAINERD       CLOUDY    31  31 100 CALM      29.77F FOG
STAPLES        CLOUDY    30  30 100 NW3       29.78F
LONG PRAIRIE   CLOUDY    32  30  93 W7        29.79S FOG     WCI  26
LITTLE FALLS   CLOUDY    32  30  93 CALM      29.79S FOG
LITCHFIELD     CLOUDY    34  34 100 N7        29.79F WCI  28
BUFFALO        CLOUDY    33  30  88 NW6       29.79S WCI  27
MAPLE LAKE     CLOUDY    34  32  93 NW7       29.78F WCI  28
$$
MNZ037-044-045-052-053-241600-
   East Central Minnesota

CITY           SKY/WX    TMP DP  RH WIND       PRES   REMARKS
PRINCETON      CLOUDY    34  30  86 NW5       29.78S WCI  30
MORA           CLOUDY    34  32  93 NW6       29.78F WCI  29
CAMBRIDGE      CLOUDY    36  28  75 NW5       29.75S
RUSH CITY      CLOUDY    33  32  94 N3        29.75F
MOOSE LAKE     CLOUDY    32  32 100 NW3       29.73F
HINCKLEY       PTSUNNY   34  32  93 CALM      29.75F
CLOQUET        CLOUDY    34  30  86 N10       29.74F WCI  26
MCGREGOR       CLOUDY    32  32 100 NW3       29.76F
$$
MNZ071>073-080-081-089-090-097-098-241600-
   Southwest Minnesota

CITY           SKY/WX    TMP DP  RH WIND       PRES   REMARKS
MONTEVIDEO     CLOUDY    30  30 100 N7        29.84F WCI  23
GRANITE FALLS  CLOUDY    31  30  96 NW12      29.84S WCI  21
CANBY          CLOUDY    30  28  92 NW7       29.86R WCI  23
MARSHALL       CLOUDY    28  27  93 NW13      29.84R WCI  18
REDWOOD FALLS  CLOUDY    31  30  96 NW8       29.82S FOG     WCI  23
OLIVIA         CLOUDY    30  30 100 NW9       29.81S FOG     WCI  22
PIPESTONE      MIX PCPN  28  28 100 NW10      29.82S WCI  19
WINDOM         LGT SNOW  30  30 100 NW9       29.80F WCI  22
WORTHINGTON    CLOUDY    28 -18  12 NW13      29.81F WCI  18
JACKSON        CLOUDY    32  30  93 NW14      29.80S FOG     WCI  22
TRACY          CLOUDY    31  30  96 NW13      29.83S WCI  21
SLAYTON        CLOUDY    29  28  98 NW13      29.82S WCI  19
$$
MNZ065>067-074>077-082>085-091>093-241600-
   South Central Minnesota

CITY           SKY/WX    TMP DP  RH WIND       PRES   REMARKS
MANKATO        CLOUDY    34  28  80 NW10      29.78S WCI  26
NEW ULM        CLOUDY    32  30  93 NW12      29.79F FOG     WCI  23
FAIRMONT       CLOUDY    32  27  80 NW15      29.78F WCI  22
GLENCOE        CLOUDY    34  32  92 NW8       29.78S WCI  27
FARIBAULT      CLOUDY    34  32  93 NW8       29.76S FOG     WCI  27
OWATONNA       CLOUDY    34  32  93 NW8       29.76R FOG     WCI  27
ALBERT LEA     CLOUDY    34  34 100 NW10      29.75R WCI  26
$$
MNZ078>079-086>088-094>096-241600-
   Southeast Minnesota

CITY           SKY/WX    TMP DP  RH WIND       PRES   REMARKS
ROCHESTER      CLOUDY    33  31  92 N12       29.72R WCI  24
RED WING       CLOUDY    36  34  93 NW3       29.74R
STANTON        CLOUDY    35  32  88 N9        29.74S WCI  28
DODGE CENTER   CLOUDY    34  34 100 N12       29.73R FOG     WCI  25
WINONA         CLOUDY    36  32  87 N6        29.72S
AUSTIN         CLOUDY    34  32  93 N10       29.73R WCI  26
PRESTON        CLOUDY    32  30  93 N12G17    29.70S WCI  23
$$
ABBREVIATIONS USED IN REMARKS
   TC - TEMPERATURES IN CELSIUS
  WCI - WIND CHILL INDEX
   HX - HEAT INDEX
  VSB - VISIBILITY
$$



USA.gov is the U.S. government's official web portal to all federal, state and local government web resources and services.